Notices

What's New in latest Release from April 7th, 2021:

- Updated Glossary, including Speed of Maximum Gust, and Total Hourly Precipitation

- Updated national and regional climate services offices contacts and prices information

- Addition of station inventory lists for 1981-2010, 1971-2000, and 1961-1990 Normals.

If you haven't already, please take our survey and provide feedback about our website: https://eccc.sondage-survey.ca/f/LanguageSelection.aspx?s=442ca660-fcf1-47c0-95a9-59707d6fd709

Hourly Data Report for September 14, 2003

TORONTO CITY
ONTARIO

43°40'00.000" N
79°24'00.000" W
112.50 m
6158355
71508
XTO

Download Data

Hourly Data (September 2003)
Hourly Data Report for September 14, 2003
TIME
LST
Temp Definition
°C
Dew Point Definition
°C
Rel Hum Definition
%
Precip. Amount Definition
mm

Wind Dir Definition
10's deg

Wind Spd Definition
km/h
Visibility Definition
km
Stn Press Definition
kPa
Hmdx Definition


Wind Chill Definition


Weather Definition


00:00 20.5 19.6 95   LegendMM LegendMM LegendMM 100.56 28   LegendNANA
01:00 20.5 19.6 95   LegendMM LegendMM LegendMM 100.56 28   LegendNANA
02:00 20.7 19.8 95   LegendMM LegendMM LegendMM 100.52 28   LegendNANA
03:00 20.5 19.8 96   LegendMM LegendMM LegendMM 100.49 28   LegendNANA
04:00 20.6 19.9 96   LegendMM LegendMM LegendMM 100.49 28   LegendNANA
05:00 20.6 19.9 96   LegendMM LegendMM LegendMM 100.47 28   LegendNANA
06:00 20.6 19.9 96   LegendMM LegendMM LegendMM 100.48 28   LegendNANA
07:00 20.8 20.0 95   LegendMM LegendMM LegendMM 100.46 28   LegendNANA
08:00 21.2 20.3 95   LegendMM LegendMM LegendMM 100.47 29   LegendNANA
09:00 21.6 20.4 93   LegendMM LegendMM LegendMM 100.45 30   LegendNANA
10:00 23.3 20.8 86   LegendMM LegendMM LegendMM 100.43 32   LegendNANA
11:00 23.8 20.5 82   LegendMM LegendMM LegendMM 100.41 32   LegendNANA
12:00 24.0 20.6 81   LegendMM LegendMM LegendMM 100.39 32   LegendNANA
13:00 23.0 20.5 86   LegendMM LegendMM LegendMM 100.38 31   LegendNANA
14:00 23.4 20.6 84   LegendMM LegendMM LegendMM 100.34 31   LegendNANA
15:00 23.8 20.3 81   LegendMM LegendMM LegendMM 100.29 32   LegendNANA
16:00 22.5 20.4 88   LegendMM LegendMM LegendMM 100.28 30   LegendNANA
17:00 21.4 20.5 95   LegendMM LegendMM LegendMM 100.26 29   LegendNANA
18:00
19:00
20:00 20.8 20.4 98   LegendMM LegendMM LegendMM 100.33 29   LegendNANA
21:00 20.8 20.4 98   LegendMM LegendMM LegendMM 100.31 29   LegendNANA
22:00 19.5 19.0 97   LegendMM LegendMM LegendMM 100.29     LegendNANA
23:00 19.2 18.7 97   LegendMM LegendMM LegendMM 100.23     LegendNANA

Notes on Data Quality.

Legend

  • E = Estimated
  • M = Missing
  • NA = Not Available*
  • [empty] = Indicates an unobserved value
Date modified: